Search your local weather  

 

Hazardous Weather Conditions

No active alerts for PHOENIX, ARIZONA

Current Conditions: PHOENIX, ARIZONA

Fair


85.0 F

Last Updated on Oct 23 2019, 1:53 pm MST
Humidity: 15%
Wind Speed: 4.6 mph
Barometer 29.87 in
Dewpoint: 32.0 F
Visibility: 10.00 mi
Precip: --
Heat Index: 82 F
Wind Chill: NA
Current conditions at:

Phoenix, Phoenix-Deer Valley Municipal Airport, AZ (KDVT)

Lat: 33.69026 Lon: -112.06618

Local Radar Image active severe weather and emergency alerts image image weather storm and storm spotter reports image weather observation monitoring service image
Local
Radar
Active
Alerts
Storm Reports Weather
Monitoring

5 Day Forecast for PHOENIX, ARIZONA

Wednesday

Clear

High 91 °F
Wednesday
Night
Clear

Low 62 °F
Thursday

Sunny

High 87 °F
Thursday
Night
Clear

Low 62 °F
Friday

Mostly Sunny

High 85 °F
Friday
Night
Clear

Low 62 °F
Saturday

Sunny

High 84 °F
Saturday
Night
Clear

Low 62 °F
Sunday

Partly Sunny

High 86 °F

Sign-up For Email & Text Message Weather Alert Notification Services


Advertise Here

Observation History for PHOENIX, ARIZONA


Time Wind
(mph)
Vis
(mi)
Weather Precip (in) Temperature (F) Relative
Humidity
Wind
Chill
(°F)
Heat
Index
(°F)
Pressure
Air Dwpt altimeter
(in)
sea level
(mb)
1:53 pm MST 4.6 10.00 Fair -- 85.0 32.0 15% NA 82 29.87 1009.3
12:53 pm MST SW 6.9 10.00 Fair -- 84.0 32.0 15% NA 81 29.90 1010.3
11:53 am MST SW 4.6 10.00 Fair -- 82.0 32.0 16% NA 80 29.92 1011.2
10:53 am MST 3.5 10.00 Fair -- 78.0 33.1 19% NA NA 29.95 1012.1
9:53 am MST S 5.8 10.00 Fair -- 75.0 32.0 21% NA NA 29.96 1012.7
8:53 am MST N 0.0 10.00 Fair -- 71.0 30.9 23% NA NA 29.97 1012.9
7:53 am MST SE 3.5 10.00 Fair -- 65.0 30.9 28% NA NA 29.95 1012.4
6:53 am MST N 0.0 10.00 Fair -- 62.0 30.0 30% NA NA 29.93 1011.6
5:53 am MST N 0.0 10.00 Fair -- 61.0 28.9 30% NA NA 29.92 1011.4
4:53 am MST N 4.6 10.00 Fair -- 62.0 28.9 29% 62 NA 29.93 1011.5
3:53 am MST N 0.0 10.00 Fair -- 61.0 28.0 29% NA NA 29.92 1011.3
2:53 am MST N 4.6 10.00 Fair -- 63.0 28.0 27% 64 NA 29.93 1011.4
1:53 am MST N 0.0 10.00 Fair -- 64.0 28.0 26% NA NA 29.94 1011.8
12:53 am MST N 0.0 10.00 Fair -- 67.0 28.0 23% NA NA 29.94 1011.9
11:53 pm MST NE 5.8 10.00 Fair -- 67.0 28.0 23% NA NA 29.95 1012.3
10:53 pm MST E 3.5 10.00 Fair -- 68.0 28.9 23% NA NA 29.96 1012.5
9:53 pm MST N 0.0 10.00 Fair -- 68.0 28.0 22% NA NA 29.97 1012.9
8:53 pm MST NE 3.5 10.00 Fair -- 71.0 28.0 20% NA NA 29.97 1012.9
7:53 pm MST N 4.6 10.00 Fair -- 76.0 28.0 17% NA NA 29.97 1012.8
6:53 pm MST SW 4.6 10.00 Fair -- 80.0 28.0 15% NA 78 29.97 1013.0
5:53 pm MST SW 5.8 10.00 Fair -- 84.0 27.0 12% NA 81 29.96 1012.5
3:53 pm MST 3.5 10.00 Fair -- 86.0 27.0 12% NA 83 29.98 1013.2
2:53 pm MST 10.00 Fair -- 87.0 26.1 11% NA 83 29.99 1013.6

Regional Weather Observation

Glendale, Glendale Municipal Airport, AZ (KGEU)

Clear
86.0 F

Luke Air Force Base / Phoenix, AZ (KLUF)

Fair
87.0 F

Phoenix, Phoenix Sky Harbor International Airport, AZ (KPHX)

A Few Clouds
87.0 F

Goodyear Municipal, AZ (KGYR)

A Few Clouds
86.0 F

Buckeye Municipal Airport, AZ (KBXK)

Fair
86.0 F

Scottsdale Airport, AZ (KSDL)

Fair
87.0 F

Advertise Here

Advertise Here